Regional Weather Roundup
Issued by NWS

Home | Current Version | Previous Version | Text Only | Print | Product List | Glossary On
Versions: 1 2 3 4 5 6 7 8 9 10 11 12 13 14 15 16 17 18 19 20 21 22 23 24 25 26 27 28 29 30 31 32 33 34 35 36 37 38 39 40 41 42 43 44 45 46 47 48 49 50
000
ASUS44 KFWD 210015
RWRTX
NORTH TEXAS HOURLY WEATHER ROUNDUP
NATIONAL WEATHER SERVICE FORT WORTH TX
600 PM CST SAT JAN 20 2018

NOTE: "FAIR" INDICATES FEW OR NO CLOUDS BELOW 12,000 FEET WITH NO
SIGNIFICANT WEATHER AND/OR OBSTRUCTIONS TO VISIBILITY.

TXZ118-119-210100-
DALLAS/FORT WORTH METROPLEX

CITY           SKY/WX    TMP DP  RH WIND       PRES   REMARKS
DFW AIRPORT    FAIR      68  55  63 S15       29.87S
6HR MIN TEMP:  68; 6HR MAX TEMP:  73;

DALLAS LOVE    FAIR      67  55  65 S20       29.90R
6HR MIN TEMP:  65; 6HR MAX TEMP:  71;

FTW MEACHAM    FAIR      69  54  58 SE18G29   29.86S
6HR MIN TEMP:  67; 6HR MAX TEMP:  76;

DAL-EXECUTIVE  FAIR      67  55  65 S15G28    29.90R
6HR MIN TEMP:  62; 6HR MAX TEMP:  69;

FTW-ALLIANCE   FAIR      68  53  58 S12G24    29.86S
6HR MIN TEMP:  66; 6HR MAX TEMP:  74;

FTW-NAS-JRB    FAIR      70  52  52 S14       29.87R
6HR MIN TEMP:  66; 6HR MAX TEMP:  76;

FTW-SPINKS     CLEAR     66  54  63 SE13G24   29.90R
ARLINGTON      FAIR      66  55  67 SE15G28   29.89R
6HR MIN TEMP:  64; 6HR MAX TEMP:  71;

GRAND PRAIRIE  CLEAR     66  54  63 S12G21    29.91R
ADDISON        CLEAR     66  55  68 S16G23    29.90S
MESQUITE       PTCLDY    64  55  72 SE17G29   29.93R
LANCASTER      FAIR      65  56  71 S15G21    29.93R
6HR MIN TEMP:  60; 6HR MAX TEMP:  69;

$$

TXZ091>094-102>105-117-120-121-131>134-210100-
NORTH CENTRAL TEXAS

CITY           SKY/WX    TMP DP  RH WIND       PRES   REMARKS
SHRMAN/DENISON FAIR      63  53  70 SE15      29.89R
6HR MIN TEMP:  63; 6HR MAX TEMP:  70;

GAINESVILLE    FAIR      63  50  63 S15       29.88R
6HR MIN TEMP:  63; 6HR MAX TEMP:  72;

BOWIE          FAIR      69  39  33 S10       29.83S
6HR MIN TEMP:  64; 6HR MAX TEMP:  74;

BRIDGEPORT     FAIR      72  38  29 S8        29.85S
6HR MIN TEMP:  65; 6HR MAX TEMP:  76;

DECATUR        FAIR      68  50  53 SE14      29.84S
6HR MIN TEMP:  63; 6HR MAX TEMP:  74;

DENTON         FAIR      66  53  63 S14       29.86S
6HR MIN TEMP:  65; 6HR MAX TEMP:  74;

MCKINNEY       FAIR      63  55  75 S15       29.90R
6HR MIN TEMP:  63; 6HR MAX TEMP:  70;

BONHAM         FAIR      60  54  79 S15       29.92R
6HR MIN TEMP:  60; 6HR MAX TEMP:  68;

GREENVILLE     CLOUDY    64  57  77 S21       29.94S
ROCKWALL       FAIR      63  56  78 SE10G17   29.92S
6HR MIN TEMP:  60; 6HR MAX TEMP:  69;

TERRELL        MOCLDY    63  56  78 S15       29.94S
6HR MIN TEMP:  57; 6HR MAX TEMP:  66;

WAXAHACHIE     FAIR      65  56  73 S15G24    29.93R
6HR MIN TEMP:  60; 6HR MAX TEMP:  69;

CLEBURNE       FAIR      66  55  68 SE15G23   29.91R
GRANBURY       FAIR      73  48  41 SE10      29.87S
6HR MIN TEMP:  67; 6HR MAX TEMP:  79;

$$

TXZ083>090-098>101-113>116-127>130-139>142-154-155-210100-
WESTERN NORTH TEXAS

CITY           SKY/WX    TMP DP  RH WIND       PRES   REMARKS
WICHITA FALLS  FAIR      65  35  33 S12       29.78S
6HR MIN TEMP:  62; 6HR MAX TEMP:  74;

WF-KICKAPOO    FAIR      65  33  30 SE9       29.81S
6HR MIN TEMP:  62; 6HR MAX TEMP:  75;

VERNON         FAIR      69  16  13 S9        29.76S
6HR MIN TEMP:  43; 6HR MAX TEMP:  77;

ABILENE        FAIR      69  31  24 S9        29.84R
6HR MIN TEMP:  58; 6HR MAX TEMP:  75;

ABILENE-DYESS  FAIR      68  34  28 S12       29.82S
6HR MIN TEMP:  65; 6HR MAX TEMP:  76;

GRAHAM           N/A     73  33  22 S6        29.80S
6HR MIN TEMP:  66; 6HR MAX TEMP:  78;

BRECKENRIDGE   FAIR      73  28  19 S9        29.82S HAZE
6HR MIN TEMP:  67; 6HR MAX TEMP:  79;

CISCO          FAIR      73  28  19 S10       29.85S
EASTLAND       FAIR      71  34  25 S9        29.84S
6HR MIN TEMP:  65; 6HR MAX TEMP:  78;

RANGER         FAIR      70  36  28 S9        29.85S
MINERAL WELLS  FAIR      70  38  31 S9        29.83S
6HR MIN TEMP:  66; 6HR MAX TEMP:  78;

STEPHENVILLE   FAIR      72  41  32 S8        29.89S
6HR MIN TEMP:  66; 6HR MAX TEMP:  77;

COMANCHE       FAIR      71  35  27 S7        29.87S
6HR MIN TEMP:  66; 6HR MAX TEMP:  78;

BROWNWOOD      FAIR      73  32  21 S8        29.86F
COLEMAN          N/A     73  32  22 S10       29.86
$$

TXZ143>147-156>162-174-175-210100-
CENTRAL TEXAS

CITY           SKY/WX    TMP DP  RH WIND       PRES   REMARKS
WACO           FAIR      62  54  74 S18       29.95R
6HR MIN TEMP:  61; 6HR MAX TEMP:  72;

WACO-TSTC      PTCLDY    64  55  72 S17G25    29.95R
WACO-MCGREGOR  FAIR      62  55  77 S18       29.95R
6HR MIN TEMP:  62; 6HR MAX TEMP:  71;

CORSICANA      CLOUDY    64  58  80 S16G24    29.97S
6HR MIN TEMP:  61; 6HR MAX TEMP:  67;

MEXIA          CLOUDY    63  56  80 S18G25    29.97S
6HR MIN TEMP:  59; 6HR MAX TEMP:  65;

HEARNE         CLOUDY    63  60  91 SE7       30.01S
6HR MIN TEMP:  57; 6HR MAX TEMP:  64;

CAMERON        CLOUDY    64  58  80 S9G16     29.99R
6HR MIN TEMP:  61; 6HR MAX TEMP:  68;

TEMPLE         MOCLDY    62  56  80 S25G31    29.96R
6HR MIN TEMP:  61; 6HR MAX TEMP:  70;

KILLEEN        FAIR      62  54  74 SE14      29.93R
6HR MIN TEMP:  62; 6HR MAX TEMP:  73;

KILLEEN-SKYLRK FAIR      62  55  77 S10G21    29.96R
6HR MIN TEMP:  62; 6HR MAX TEMP:  74;

FORT HOOD      FAIR      62  54  74 S12       29.92R
6HR MIN TEMP:  62; 6HR MAX TEMP:  74;

GATESVILLE     FAIR      66  54  63 S9G17     29.94R
HAMILTON       FAIR      68  52  56 S13       29.91S
LAMPASAS       FAIR      65  52  62 S10       29.92S
6HR MIN TEMP:  65; 6HR MAX TEMP:  75;

$$

TXZ095>097-106>112-122>126-135>138-148>153-164>167-210100-
EAST TEXAS

CITY           SKY/WX    TMP DP  RH WIND       PRES   REMARKS
PARIS          CLOUDY    62  56  80 S13       29.95S
6HR MIN TEMP:  56; 6HR MAX TEMP:  66;

SULPHUR SPRNGS CLOUDY    64  57  79 S15G21    29.97S
6HR MIN TEMP:  59; 6HR MAX TEMP:  65;

MOUNT PLEASANT MOCLDY    63  58  84 S10       30.00S
6HR MIN TEMP:  57; 6HR MAX TEMP:  63;

GILMER         CLOUDY    62  58  86 SE5       30.00S
6HR MIN TEMP:  57; 6HR MAX TEMP:  63;

MINEOLA        CLOUDY    63  59  88 S6        29.97F
TYLER          FAIR      62  59  90 S9        29.98S
6HR MIN TEMP:  60; 6HR MAX TEMP:  64;

LONGVIEW       MOCLDY    62  59  90 SE8       30.00R
6HR MIN TEMP:  62; 6HR MAX TEMP:  67;

MARSHALL       CLOUDY    63  57  81 S7        30.04R
6HR MIN TEMP:  56; 6HR MAX TEMP:  65;

ATHENS         CLOUDY    59  55  88 S9        29.97S
PALESTINE      MOCLDY    65  60  85 S6        30.01R
JACKSONVILLE   MOCLDY    65  61  87 S6        30.03R
CENTER         CLOUDY    61  60  95 SE12      30.06R
6HR MIN TEMP:  61; 6HR MAX TEMP:  69;

NACOGDOCHES    CLOUDY    64  61  90 SE10      30.04R
6HR MIN TEMP:  60; 6HR MAX TEMP:  69; 6HR PCP: TRACE;

LUFKIN         CLOUDY    64  62  93 SE9       30.04R
6HR MIN TEMP:  60; 6HR MAX TEMP:  69;

$$

SUPPLEMENTAL OBSERVATIONS (NWS FORT WORTH AREA)

CITY           SKY/WX    TMP DP  RH WIND       PRES   REMARKS
DENISON DAM      N/A     64  54  68 S16         N/A
CADDO GRASSLND   N/A     61  54  77 S14G24      N/A
PAT MAYSE LAKE   N/A     61  57  88 SE15        N/A
GREENVILLE       N/A     63  55  77 S12         N/A
CEDAR HILL       N/A     64  54  68 S15G26      N/A
LBJ GRASSLAND    N/A     68  48  49 SE12        N/A


USA.gov is the U.S. government's official web portal to all federal, state and local government web resources and services.